Voltar ao catálogo

KUIPER-00260

AtivoComunicaçõesLEO
NORAD 67787·PAYLOAD·🇺🇸 United States

Lançado Feb 12, 2026 de Guiana Space Centre

Loading…

Próximas Passagens (próximas 24 horas)

TLE

AtualizadoSource: CelesTrak SupGP

Época: Sep 14, 2026, 13:22 UTC

1 67787C 26030Z   26257.55738426 -.00001361  00000+0 -17823-3 0  2571
2 67787  51.8995  80.5423 0000871 114.5312 275.9037 14.79922603    16

Acompanhe KUIPER-00260 em tempo real com AllMySat

Download on the App Store